DECAYED

STARLINK-1619, 46126 (Decayed)

Orbit data source: Space-Track

STARLINK-1619, 46126 was a payload satellite owned by SpaceX/Seattle (US) in LEO that was launched on Tue, 18 Aug 2020 UTC via an FALCON 9 launch vehicle from the Air Force Eastern Test Range (AFETR). Payload-class satellites include a variety of spacecraft equipped with specific instruments for various scientific and technological missions. These include communications satellites like Starlink; space stations such as the ISS; scientific satellites like the Hubble; Earth observation satellites from companies like Planet Labs, Umbra, and HawkEye 360; GPS; miniature CubeSats for education and research; and military/defense satellites.

Not visible in the next 10 days
Identifier
46126, 2020-057K
Orbit
Decayed
Country
Flag of USUS
Related business
Manufacturer
SpaceX/Seattle
Mission
Decayed Commercial Communications
Bus & Motor
STARLINK, Unknown motor
Mass
260 kg wet, ~248 kg dry
Launch date (UTC)
2020-08-18 (6 years ago)
Launch vehicle
FALCON 9
Launch site
Air Force Eastern Test Range (AFETR)
Object type
Payload
Rocket body
Debris
Shape & HBR
Box + 1 Pan, 10.1 m
Radar Cross Section
13.562 m², Large (>1 m²)

Expand to show TLE details & history
Last TLE update: 1 year ago

TLE from 1 year ago
0 STARLINK-1619
1 46126U 20057K   25102.97730672  .15947395  12491-4  73487-3 0  9990
2 46126  53.0136 280.0706 0008434 292.3288 155.1847 16.42632463258020
Epoch: 2025-04-12T23:27Z
TLE epoch observation values (Epoch: 2025-04-12T23:27:19.300Z)
Latitude
53.10302°
Longitude
172.76088°
Altitude
170.269 km
Speed
7.808 km/s
True Right ascension
00h 24m 01s
True Declination
52° 55' 22"
Sunlit
Object was in daylight at epoch
Visualization orbit readout
Latitude
Unknown
Longitude
Unknown
Altitude
Unknown
Speed
Unknown
Apparent Right ascension
Unknown
Apparent Declination
Unknown
Sunlit
N/A
Visualization observer readout
Local Sidereal Time
22:41:17
Azimuth
Unknown
Elevation
Unknown
Doppler factor
Unknown
Orbital elements
Apogee altitude
164.616 km
Perigee altitude
153.589 km
Semi-major axis
6,537.239 km
Eccentricity
0.00084
Inclination
53.0136°
RAAN
280.0706°
Arg. of periapsis
292.3288°
True anomaly
155.22522°
Mean anomaly
155.1847°
Eccentric anomaly
155.20497°
Mean motion
4.10631 °/min
Orbital period
87.67 mins
BSTAR
0.00073487
Loading maneuver chart data...
Computing Atmospheric mass density...
Loading historical data...
Loading historical data...
Loading historical data...
Loading historical data...
Loading historical data...
Loading historical data...
Loading historical data...

Documentation

Showing up to 5 results
|